Showing default

O3B FM16, 43232

Orbit data source: Space-Track

O3B FM16, 43232 is a payload satellite owned by O3B SES (JE) that was launched on Fri, 09 Mar 2018 UTC via a SOYUZ-ST-B launch vehicle from the French Guiana (FRGUI). Payload-class satellites include a variety of spacecraft equipped with specific instruments for various scientific and technological missions. These include communications satellites like Starlink; space stations such as the ISS; scientific satellites like the Hubble; Earth observation satellites from companies like Planet Labs, Umbra, and HawkEye 360; GPS; miniature CubeSats for education and research; and military/defense satellites.

Loading next visibility...
Identifier
43232, 2018-024B
Orbit
Active
Country
Flag of UnknownUnknown / O3B
Related business
Manufacturer
Thales Alenia
Mission
Operational Commercial Communications
Bus & Motor
PRISMA?, LS-400 AOCS?
Mass
700 kg wet, ~500 kg dry
Launch date (UTC)
2018-03-09 (8 years ago)
Launch vehicle
SOYUZ-ST-B
Launch site
French Guiana (FRGUI)
Object type
Payload
Rocket body
Debris
Shape & HBR
Trap Box + 2 Pan, 6.0 m
Radar Cross Section
21.980 m², Large (>1 m²)

Expand to show TLE details & history
Last TLE update: 8 hours ago

TLE from 8 hours ago
0 O3B FM16
1 43232U 18024B   26037.61666631 -.00000023  00000-0  00000-0 0  9998
2 43232   0.0425   0.1291 0002829 312.5163  47.3246  5.00115877144405
Epoch: 2026-02-06T14:47Z
TLE epoch observation values (Epoch: 2026-02-06T14:47:59.969Z)
Latitude
-0.00402°
Longitude
1.24821°
Altitude
8,061.593 km
Speed
5.255 km/s
True Right ascension
00h 00m 00s
True Declination
0° 00' 14"
Sunlit
Object was in daylight at epoch
Visualization orbit readout
Latitude
Unknown
Longitude
Unknown
Altitude
Unknown
Speed
Unknown
Apparent Right ascension
Unknown
Apparent Declination
Unknown
Sunlit
N/A
Visualization observer readout
Local Sidereal Time
00:47:22
Azimuth
Unknown
Elevation
Unknown
Doppler factor
Unknown
Orbital elements
Apogee altitude
8,073.028 km
Perigee altitude
8,064.854 km
Semi-major axis
14,447.078 km
Eccentricity
0.00028
Inclination
0.0425°
RAAN
0.1291°
Arg. of periapsis
312.5163°
True anomaly
47.34844°
Mean anomaly
47.3246°
Eccentric anomaly
47.33652°
Mean motion
1.24989 °/min
Orbital period
288.02 mins
BSTAR
0
Loading maneuver chart data...
Computing Atmospheric mass density...
Loading historical data...
Loading historical data...
Loading historical data...
Loading historical data...
Loading historical data...
Loading historical data...
Loading historical data...
Other satellites on launch #24 in the year 2018 (2018-03-09 UTC)

Documentation

Showing up to 5 results
|